EW7070 Weather Reports


time (UTC)temp
F
wind
direction
speed
knots
gust
knots
rain 1hr
in
rain 24hr
in
rain mn
in
humidity
%
barometer
mb
20260508085339 60 308 2.6 12.2 0.00 0.38 0.30 88 1006.4
20260508085101 60 354 3.5 11.3 0.00 0.38 0.30 89 1006.2
20260508084332 60 317 5.2 12.2 0.00 0.38 0.30 90 1006.1
20260508083822 59 293 3.5 12.2 0.00 0.38 0.30 92 1006.0
20260508083321 59 251 2.6 8.7 0.00 0.38 0.30 94 1005.8
20260508082821 59 350 2.6 6.1 0.00 0.38 0.30 95 1005.6
20260508082320 59 12 2.6 7.8 0.00 0.38 0.30 95 1005.5
20260508081812 59 321 0.9 7.8 0.00 0.38 0.30 96 1005.6
20260508081258 59 148 0.0 1.7 0.00 0.38 0.30 96 1005.5
20260508080743 59 36 0.0 1.7 0.00 0.38 0.30 96 1005.4
20260508080244 59 251 0.0 1.7 0.00 0.38 0.30 96 1005.5
20260508075744 59 251 0.0 1.7 0.00 0.38 0.30 96 1005.5
20260508075243 59 252 0.0 1.7 0.00 0.38 0.30 96 1005.3
20260508075006 59 252 0.0 1.7 0.00 0.38 0.30 96 1005.1
20260508074235 59 252 0.0 1.7 0.00 0.38 0.30 96 1004.8
20260508073733 59 241 0.0 0.9 0.00 0.38 0.30 96 1004.9
20260508073231 59 241 0.0 1.7 0.00 0.38 0.30 96 1004.7
20260508073003 59 241 0.9 2.6 0.00 0.38 0.30 96 1004.6
20260508072505 59 252 0.9 2.6 0.01 0.38 0.30 95 1004.5
20260508071729 59 58 1.7 2.6 0.02 0.38 0.30 95 1004.2
20260508071231 59 74 1.7 5.2 0.03 0.38 0.30 95 1004.1
20260508070713 58 88 0.9 5.2 0.04 0.38 0.30 95 1004.4
20260508070212 59 45 0.9 2.6 0.06 0.38 0.30 95 1004.4
20260508065707 59 40 0.9 2.6 0.07 0.38 0.30 95 1004.4
20260508065157 58 55 0.9 2.6 0.07 0.38 0.30 94 1004.4
20260508064659 59 87 0.0 2.6 0.08 0.38 0.30 94 1004.3
20260508064130 59 68 0.9 2.6 0.10 0.38 0.30 94 1004.5
20260508063850 59 29 0.9 2.6 0.11 0.38 0.30 94 1004.7
20260508063338 59 31 0.9 2.6 0.14 0.38 0.30 94 1005.1
20260508062558 59 43 0.9 4.3 0.18 0.38 0.30 94 1005.0
20260508062049 59 61 1.7 9.6 0.17 0.37 0.29 93 1004.8
20260508061547 59 40 1.7 9.6 0.16 0.36 0.28 93 1005.4
20260508061047 59 295 4.3 10.4 0.15 0.35 0.27 93 1005.3
20260508060545 59 289 5.2 13.0 0.14 0.34 0.26 92 1005.3
20260508060043 60 267 5.2 13.0 0.12 0.32 0.24 91 1005.2
20260508055544 60 261 5.2 15.6 0.11 0.31 0.23 90 1005.1
20260508055039 61 259 6.1 13.9 0.11 0.31 0.23 89 1004.6
20260508054526 62 251 5.2 12.2 0.09 0.29 0.21 88 1005.0
20260508054017 64 268 5.2 11.3 0.07 0.27 0.20 88 1004.8
20260508053454 66 270 4.3 17.4 0.06 0.26 0.18 89 1004.4
20260508052954 67 262 2.6 17.4 0.03 0.23 0.15 93 1004.9
20260508052455 68 206 1.7 5.2 0.01 0.20 0.12 93 1004.2
20260508051955 68 291 1.7 5.2 0.11 0.20 0.12 93 1004.0
20260508051446 68 245 0.9 2.6 0.11 0.20 0.12 92 1003.4
20260508050940 68 233 0.9 3.5 0.11 0.20 0.12 92 1003.5
20260508050652 68 216 0.9 3.5 0.11 0.20 0.12 91 1003.6
20260508045919 68 263 1.7 3.5 0.11 0.20 0.12 91 1003.4
20260508045410 69 266 1.7 3.5 0.11 0.20 0.12 90 1003.1
20260508044911 69 233 0.9 3.5 0.11 0.20 0.12 89 1002.8
20260508044410 69 260 0.9 7.0 0.11 0.20 0.12 88 1002.8
20260508043857 70 335 1.7 7.0 0.11 0.20 0.12 88 1002.8
20260508043332 70 322 3.5 9.6 0.11 0.20 0.12 86 1002.5
20260508042827 70 332 3.5 9.6 0.11 0.20 0.12 85 1002.5
20260508042315 71 346 3.5 8.7 0.10 0.18 0.11 84 1002.4
20260508041811 71 328 4.3 8.7 0.01 0.09 0.01 81 1002.5
20260508041311 71 312 4.3 8.7 0.01 0.09 0.01 81 1002.2
20260508040801 71 345 4.3 9.6 0.01 0.09 0.01 82 1001.9
20260508040257 70 307 3.5 9.6 0.01 0.09 0.01 82 1001.7
20260508035757 70 332 3.5 8.7 0.01 0.09 0.01 83 1001.7
20260508035255 70 316 2.6 8.7 0.01 0.09 0.01 83 1001.7
20260508034743 70 348 1.7 6.1 0.01 0.09 0.01 83 1001.8
20260508034216 70 352 2.6 6.1 0.01 0.09 0.01 84 1001.9
20260508033936 70 274 3.5 7.8 0.01 0.09 0.01 84 1002.2
20260508033436 70 0 3.5 7.8 0.01 0.09 0.01 83 1002.3
20260508032704 70 22 4.3 13.0 0.01 0.09 0.01 83 1002.5
20260508032202 70 14 5.2 13.0 0.00 0.08 0.00 83 1002.8
20260508031702 70 351 5.2 15.6 0.01 0.08 0.00 83 1002.8
20260508031433 69 353 4.3 15.6 0.01 0.08 0.00 83 1002.9
20260508030937 69 345 3.5 10.4 0.02 0.08 0.00 85 1003.0
20260508030205 69 41 4.3 11.3 0.03 0.08 0.00 84 1003.0
20260508025932 69 353 4.3 11.3 0.08 0.08 0.08 84 1002.9
20260508025413 69 347 3.5 9.6 0.08 0.08 0.08 85 1003.0
20260508024605 69 37 3.5 7.0 0.08 0.08 0.08 85 1003.0
20260508024335 69 339 3.5 10.4 0.08 0.08 0.08 85 1003.0
20260508023558 69 14 3.5 10.4 0.08 0.08 0.08 85 1003.2
20260508023045 69 8 3.5 7.8 0.08 0.08 0.08 85 1003.4
20260508022759 70 31 3.5 13.9 0.08 0.08 0.08 84 1003.5
20260508022029 70 345 5.2 13.9 0.08 0.08 0.08 83 1003.4
20260508021527 71 20 5.2 18.2 0.07 0.07 0.07 81 1003.6
20260508021027 72 322 5.2 20.9 0.06 0.06 0.06 79 1003.9
20260508020738 74 1 8.7 20.9 0.06 0.06 0.06 76 1004.0
20260508020004 76 253 11.3 26.1 0.03 0.03 0.03 71 1004.1
20260508015501 81 245 9.6 26.1 0.00 0.00 0.00 59 1004.2
20260508015203 84 275 7.8 18.2 0.00 0.00 0.00 54 1003.8
20260508014428 84 35 7.8 22.6 0.00 0.00 0.00 55 1001.7
20260508013929 84 359 8.7 22.6 0.00 0.00 0.00 55 1000.8
20260508013357 84 346 7.8 18.2 0.00 0.00 0.00 55 1000.4
20260508012852 84 356 7.0 18.2 0.00 0.00 0.00 55 1000.1
20260508012349 84 343 8.7 19.1 0.00 0.00 0.00 55 1000.1
20260508012053 85 10 8.7 19.1 0.00 0.00 0.00 54 1000.2
20260508011545 85 6 7.8 16.5 0.00 0.00 0.00 54 1000.2
20260508010810 85 338 7.8 16.5 0.00 0.00 0.00 54 1000.2
20260508010306 85 19 7.8 16.5 0.00 0.00 0.00 54 1000.2
20260508005737 85 332 8.7 17.4 0.00 0.00 0.00 54 1000.1
20260508005236 85 341 7.8 17.4 0.00 0.00 0.00 54 1000.1
20260508004956 84 337 7.8 16.5 0.00 0.00 0.00 54 1000.1
20260508004459 84 4 7.0 16.5 0.00 0.00 0.00 54 999.9
20260508003645 84 334 7.0 16.5 0.00 0.00 0.00 54 999.8
20260508003142 85 6 8.7 25.2 0.00 0.00 0.00 54 999.8
20260508002845 85 24 8.7 25.2 0.00 0.00 0.00 53 999.9
20260508002107 85 355 7.8 19.1 0.00 0.00 0.00 54 999.7
20260508001605 85 341 8.7 17.4 0.00 0.00 0.00 53 999.7
20260508001323 85 45 9.6 17.4 0.00 0.00 0.00 53 999.8
20260508000554 85 356 9.6 20.0 0.00 0.00 0.00 53 999.7
20260508000026 85 344 8.7 19.1 0.00 0.00 0.00 53 1000.0
20260507235523 85 12 9.6 20.0 0.00 0.00 0.00 52 999.9
20260507235013 85 326 10.4 20.0 0.00 0.00 0.00 52 999.9
20260507234716 85 339 7.8 19.1 0.00 0.00 0.00 53 999.6
20260507233944 85 16 6.1 13.9 0.00 0.00 0.00 53 999.7
20260507233425 85 19 6.1 13.0 0.00 0.00 0.00 53 999.7
20260507232923 85 333 6.1 13.0 0.00 0.00 0.00 54 999.8
20260507232430 85 0 7.0 18.2 0.00 0.00 0.00 54 999.7
20260507232423 85 30 6.1 13.0 0.00 0.00 0.00 54 999.8
20260507231426 84 308 6.1 18.2 0.00 0.00 0.00 54 999.7
20260507230906 84 334 4.3 12.2 0.00 0.00 0.00 56 999.9
20260507230405 83 318 2.6 12.2 0.00 0.00 0.00 56 999.8
20260507225907 83 336 2.6 10.4 0.00 0.00 0.00 56 999.8
20260507225342 83 328 3.5 10.4 0.00 0.00 0.00 56 999.8
20260507224837 83 308 1.7 7.8 0.00 0.00 0.00 57 999.9
20260507224537 83 2 1.7 6.1 0.00 0.00 0.00 56 999.9
20260507223801 84 55 3.5 10.4 0.00 0.00 0.00 56 1000.0
20260507223258 84 16 3.5 10.4 0.00 0.00 0.00 56 1000.0
20260507222751 83 0 2.6 13.0 0.00 0.00 0.00 56 1000.0
20260507222243 84 348 2.6 13.0 0.00 0.00 0.00 56 1000.2
20260507221715 84 116 3.5 8.7 0.00 0.00 0.00 57 1000.3
20260507221212 84 308 3.5 8.7 0.00 0.00 0.00 56 1000.2
20260507220645 84 332 3.5 8.7 0.00 0.00 0.00 56 1000.4
20260507220143 84 72 1.7 6.1 0.00 0.00 0.00 56 1000.4
20260507215914 84 1 1.7 7.0 0.00 0.00 0.00 56 1000.4
20260507215141 84 354 2.6 7.0 0.00 0.00 0.00 56 1000.5
20260507214641 84 14 2.6 8.7 0.00 0.00 0.00 56 1000.7
20260507214139 84 35 2.6 8.7 0.00 0.00 0.00 55 1000.5
20260507213611 85 355 3.5 8.7 0.00 0.00 0.00 55 1000.6
20260507213338 85 65 3.5 7.8 0.00 0.00 0.00 55 1000.5
20260507212551 85 341 3.5 10.4 0.00 0.00 0.00 54 1000.6
20260507212050 85 35 2.6 10.4 0.00 0.00 0.00 54 1000.8
20260507211550 85 19 1.7 5.2 0.00 0.00 0.00 54 1000.8
20260507211025 86 20 1.7 5.2 0.00 0.00 0.00 54 1000.8
20260507210458 86 12 3.5 10.4 0.00 0.00 0.00 54 1000.8
20260507205949 86 330 3.5 10.4 0.00 0.00 0.00 52 1000.8
20260507205447 86 347 3.5 13.0 0.00 0.00 0.00 52 1000.7
20260507204935 86 20 4.3 13.0 0.00 0.00 0.00 52 1000.8
20260507204436 87 0 4.3 10.4 0.00 0.00 0.00 52 1000.8
20260507204140 87 11 4.3 12.2 0.00 0.00 0.00 51 1000.8
20260507203614 87 43 4.3 12.2 0.00 0.00 0.00 51 1000.7
20260507202840 87 285 4.3 12.2 0.00 0.00 0.00 51 1000.7
20260507202549 87 44 4.3 10.4 0.00 0.00 0.00 50 1000.6
20260507201750 88 0 6.1 16.5 0.00 0.00 0.00 50 1000.6
20260507201518 88 27 6.1 16.5 0.00 0.00 0.00 51 1000.7
20260507200737 88 314 5.2 11.3 0.00 0.00 0.00 50 1000.5
20260507200448 88 321 7.0 20.0 0.00 0.00 0.00 50 1000.5
20260507200209 88 4 5.2 9.6 0.00 0.00 0.00 50 1000.5
20260507195157 88 12 7.0 20.0 0.00 0.00 0.00 50 1000.3
20260507194646 88 337 5.2 13.9 0.00 0.00 0.00 51 1000.4
20260507194143 87 37 4.3 11.3 0.00 0.00 0.00 53 1000.4
20260507193624 87 95 2.6 9.6 0.00 0.00 0.00 55 1000.4
20260507193325 87 320 2.6 6.1 0.00 0.00 0.00 55 1000.3
20260507192526 87 330 2.6 7.8 0.00 0.00 0.00 54 1000.4
20260507192012 87 0 3.5 7.8 0.00 0.00 0.00 55 1000.4
20260507191512 87 322 3.5 10.4 0.00 0.00 0.00 53 1000.5
20260507191011 88 348 2.6 10.4 0.00 0.00 0.00 53 1000.6
20260507190510 88 27 1.7 6.1 0.00 0.00 0.00 55 1000.7
20260507190006 87 49 1.7 8.7 0.00 0.00 0.00 54 1000.6
20260507185438 87 344 1.7 8.7 0.00 0.00 0.00 55 1000.7
20260507184934 87 66 1.7 8.7 0.00 0.00 0.00 55 1000.8
20260507184431 87 14 1.7 8.7 0.00 0.00 0.00 53 1000.7
20260507183908 87 0 3.5 8.7 0.00 0.00 0.00 53 1000.9
20260507183404 87 15 3.5 8.7 0.00 0.00 0.00 53 1000.8
20260507182858 87 355 4.3 7.8 0.00 0.00 0.00 53 1000.8
20260507182351 87 8 4.3 9.6 0.00 0.00 0.00 52 1000.8
20260507181849 87 4 4.3 9.6 0.00 0.00 0.00 53 1000.9
20260507181554 87 24 4.3 8.7 0.00 0.00 0.00 52 1000.9
20260507180815 87 355 4.3 10.4 0.00 0.00 0.00 51 1000.8
20260507180311 87 6 4.3 12.2 0.00 0.00 0.00 53 1000.8
20260507175752 87 328 3.5 12.2 0.00 0.00 0.00 52 1000.8
20260507175242 88 3 4.3 12.2 0.00 0.00 0.00 53 1000.8
20260507174730 88 20 5.2 12.2 0.00 0.00 0.00 53 1000.9
20260507174211 88 18 5.2 10.4 0.00 0.00 0.00 53 1000.9
20260507173653 88 338 5.2 10.4 0.00 0.00 0.00 52 1000.9
20260507173127 88 351 4.3 10.4 0.00 0.00 0.00 52 1000.9
20260507172830 88 33 5.2 10.4 0.00 0.00 0.00 53 1001.1
20260507172053 88 20 5.2 9.6 0.00 0.00 0.00 53 1001.2
20260507171552 88 31 6.1 15.6 0.00 0.00 0.00 53 1001.3
20260507171322 88 2 6.1 15.6 0.00 0.00 0.00 52 1001.5
20260507170526 89 311 7.0 13.9 0.00 0.00 0.00 54 1001.4
20260507170022 89 355 7.8 20.9 0.00 0.00 0.00 52 1001.5
20260507165458 89 6 7.0 20.9 0.00 0.00 0.00 52 1001.6
20260507164935 89 6 6.1 13.9 0.00 0.00 0.00 52 1001.7
20260507164407 89 10 6.1 19.1 0.00 0.00 0.00 52 1001.8
20260507163906 90 10 7.0 19.1 0.00 0.00 0.00 50 1001.8
20260507163407 91 346 7.8 18.2 0.00 0.00 0.00 50 1001.7
20260507162840 90 357 8.7 18.2 0.00 0.00 0.00 50 1001.6
20260507162543 91 326 9.6 19.1 0.00 0.00 0.00 51 1001.7
20260507161748 90 0 9.6 19.1 0.00 0.00 0.00 52 1001.8
20260507161509 89 5 9.6 20.0 0.00 0.00 0.00 51 1002.0
20260507160739 89 6 9.6 20.0 0.00 0.00 0.00 52 1002.1
20260507160237 90 21 9.6 16.5 0.00 0.00 0.00 51 1001.9
20260507155716 91 20 8.7 19.1 0.00 0.00 0.00 52 1002.1
20260507155151 90 345 7.8 19.1 0.00 0.00 0.00 52 1002.1
20260507154630 90 4 7.8 16.5 0.00 0.00 0.00 56 1002.1
20260507154107 89 30 6.1 16.5 0.00 0.00 0.00 54 1002.4
20260507153604 89 275 7.0 13.0 0.00 0.00 0.00 55 1002.4
20260507153102 89 280 8.7 23.5 0.00 0.00 0.00 56 1002.4
20260507152541 89 347 8.7 23.5 0.00 0.00 0.00 55 1002.6
20260507152533 89 21 7.0 13.9 0.00 0.00 0.00 57 1002.9
20260507151531 88 10 7.0 13.9 0.00 0.00 0.00 57 1002.9
20260507151008 88 335 7.8 22.6 0.00 0.00 0.00 59 1002.9
20260507150439 88 338 6.1 22.6 0.00 0.00 0.00 56 1003.2
20260507145914 88 353 6.1 16.5 0.00 0.00 0.00 58 1003.2
20260507145344 87 6 7.0 18.2 0.00 0.00 0.00 60 1003.6
20260507144819 87 327 9.6 18.2 0.00 0.00 0.00 59 1003.7
20260507144318 87 353 7.8 15.6 0.00 0.00 0.00 58 1003.9
20260507143819 87 340 5.2 15.6 0.00 0.00 0.00 58 1004.0
20260507143318 87 5 5.2 12.2 0.00 0.00 0.00 61 1004.3
20260507142818 86 6 6.1 13.9 0.00 0.00 0.00 61 1004.3
20260507142253 86 64 7.0 14.8 0.00 0.00 0.00 60 1004.5
20260507141751 86 358 6.1 14.8 0.00 0.00 0.00 60 1004.7
20260507141241 86 314 5.2 10.4 0.00 0.00 0.00 60 1004.7
20260507140741 86 8 4.3 11.3 0.00 0.00 0.00 60 1005.1
20260507140444 86 349 3.5 11.3 0.00 0.00 0.00 62 1005.0
20260507135649 86 28 5.2 16.5 0.00 0.00 0.00 64 1005.4
20260507135122 85 31 5.2 16.5 0.00 0.00 0.00 61 1005.6
20260507134557 85 331 6.1 13.0 0.00 0.00 0.00 63 1005.7
20260507134052 85 308 5.2 13.0 0.00 0.00 0.00 62 1005.9
20260507133815 85 332 5.2 12.2 0.00 0.00 0.00 63 1006.0
20260507133017 84 36 5.2 12.2 0.00 0.00 0.00 64 1006.0
20260507132507 83 12 5.2 10.4 0.00 0.00 0.00 66 1006.1
20260507132006 83 29 4.3 10.4 0.00 0.00 0.00 65 1006.2
20260507131504 83 26 5.2 12.2 0.00 0.00 0.00 66 1006.3
20260507130939 83 357 4.3 12.2 0.00 0.00 0.00 66 1006.4
20260507130429 83 47 3.5 7.8 0.00 0.00 0.00 67 1006.6
20260507125910 81 305 3.5 7.0 0.00 0.00 0.00 69 1006.7
20260507125902 82 21 3.5 7.8 0.00 0.00 0.00 69 1006.7
20260507124836 81 33 3.5 9.6 0.00 0.00 0.00 69 1006.8
20260507124316 80 16 3.5 9.6 0.00 0.00 0.00 70 1006.9
20260507123817 80 0 3.5 11.3 0.00 0.00 0.00 69 1007.0
20260507123317 80 33 3.5 11.3 0.00 0.00 0.00 69 1007.1
20260507123048 80 7 2.6 5.2 0.00 0.00 0.00 69 1007.2
20260507122314 80 10 3.5 9.6 0.00 0.00 0.00 69 1007.2
20260507121747 80 343 2.6 9.6 0.00 0.00 0.00 69 1007.1
20260507121242 80 16 2.6 6.1 0.00 0.00 0.00 71 1007.1
20260507120714 80 301 2.6 6.1 0.00 0.00 0.00 70 1007.1
20260507120220 80 330 2.6 5.2 0.00 0.00 0.00 71 1007.2
20260507120211 80 12 1.7 5.2 0.00 0.00 0.00 70 1007.1
20260507115144 80 321 2.6 10.4 0.00 0.00 0.00 70 1007.2
20260507114844 80 289 2.6 6.1 0.00 0.00 0.00 70 1007.2
20260507114044 80 28 2.6 7.8 0.00 0.00 0.00 69 1007.2
20260507113539 80 29 3.5 7.8 0.00 0.00 0.00 69 1007.1
20260507113030 80 338 3.5 7.8 0.00 0.00 0.00 69 1007.2
20260507112529 80 351 4.3 7.8 0.00 0.00 0.00 69 1007.1
20260507112000 80 14 3.5 7.8 0.00 0.00 0.00 70 1006.9
20260507111432 80 359 3.5 8.7 0.00 0.00 0.00 70 1007.0
20260507111201 80 15 4.3 10.4 0.00 0.00 0.00 70 1006.7
20260507110658 80 64 5.2 11.3 0.00 0.00 0.00 70 1006.6
20260507105926 80 47 5.2 11.3 0.00 0.00 0.00 70 1006.5
20260507105423 79 4 5.2 10.4 0.00 0.00 0.00 70 1006.4
20260507104919 79 2 4.3 11.3 0.00 0.00 0.00 72 1006.3
20260507104851 78 337 4.3 11.3 0.00 0.00 0.00 72 1006.4
20260507103830 78 4 4.3 10.4 0.00 0.00 0.00 73 1006.2
20260507103330 78 35 5.2 10.4 0.00 0.00 0.00 73 1006.3
20260507102831 78 24 5.2 9.6 0.00 0.00 0.00 73 1006.3
20260507102327 78 16 4.3 9.6 0.00 0.00 0.00 73 1006.4
20260507101823 78 349 4.3 9.6 0.00 0.00 0.00 73 1006.4
20260507101323 78 8 4.3 8.7 0.00 0.00 0.00 73 1006.4
20260507100816 78 345 4.3 10.4 0.00 0.00 0.00 73 1006.4
20260507100314 78 332 4.3 10.4 0.00 0.00 0.00 73 1006.4
20260507095813 78 29 4.3 7.8 0.00 0.00 0.00 73 1006.3
20260507095542 78 1 5.2 9.6 0.00 0.00 0.00 73 1006.3
20260507094808 78 295 4.3 9.6 0.00 0.00 0.00 72 1006.5
20260507094246 78 323 4.3 10.4 0.00 0.00 0.00 72 1006.6
20260507093748 78 20 4.3 10.4 0.00 0.00 0.00 71 1006.5
20260507093220 78 330 5.2 14.8 0.00 0.00 0.00 71 1006.6
20260507092718 78 2 6.1 14.8 0.00 0.00 0.00 71 1006.5
20260507092202 78 305 4.3 10.4 0.00 0.00 0.00 71 1006.7
20260507091700 78 278 5.2 13.0 0.00 0.00 0.00 71 1006.6
20260507091132 79 330 5.2 13.0 0.00 0.00 0.00 71 1006.6
20260507090627 79 24 7.0 15.6 0.00 0.00 0.00 71 1006.5
20260507090124 79 6 7.0 15.6 0.00 0.00 0.00 71 1006.4